Weather History for Yellowstone, WY

Change the Weather History Date:

Friday, January 25, 2013

  Actual Average Record
Temperature  
Mean Temperature 29 °F 12 °F  
Max Temperature 31 °F 24 °F 33 °F (2005)
Min Temperature 26 °F 1 °F -18 °F (1999)
Degree Days  
Heating Degree Days 36 52  
Month to date heating degree days 1471 1300  
Since 1 July heating degree days 6139 6210  
Cooling Degree Days 0 0  
Month to date cooling degree days 0 0  
Year to date cooling degree days 0 0  
Moisture  
Dew Point 23 °F    
Average Humidity 77    
Maximum Humidity 85    
Minimum Humidity 69    
Precipitation  
Precipitation 0.00 in 0.05 in 0.10 in (2011)
Month to date precipitation 0.81 1.85  
Year to date precipitation 0.81 1.85  
Sea Level Pressure  
Sea Level Pressure 30.22 in    
Wind  
Wind Speed 1 mph (North)    
Max Wind Speed 12 mph    
Max Gust Speed 18 mph    
T = Trace of Precipitation, MM = Missing Value Source: NWS Daily Summary

Daily Weather History Graph

Daily Weather History Graph

Search for Another Location

Airport:

Trip Planner

Search our weather history database for the weather conditions in past years. The results will help you decide how hot, cold, wet, or windy it might be!

Date:

Astronomy

Jan. 25, 2013 Rise Set
Actual Time 7:47 AM MST 5:21 PM MST
Civil Twilight 7:15 AM MST 5:53 PM MST
Nautical Twilight 6:40 AM MST 6:28 PM MST
Astronomical Twilight 6:05 AM MST 7:02 PM MST
Moon 4:22 PM MST (1/25) 6:29 AM MST (1/25)
Length of Visible Light 10h 37m
Length of Day
9h 34m
Waxing Gibbous, 98% of the Moon is Illuminated
Jan 25
Waxing Gibbous
Jan 26
Full
Feb 3
Last Quarter
Feb 10
New
Feb 17
First Quarter

Hourly Weather History & Observations

Time (MST) Temp. Windchill Dew Point Humidity Pressure Visibility Wind Dir Wind Speed Gust Speed Precip Events Conditions
12:56 AM 26.1 °F 21.9 °F 21.0 °F 81% 30.28 in - Variable 3.5 mph - N/A   Unknown
1:56 AM 27.0 °F - 21.0 °F 78% 30.28 in - Calm Calm - N/A   Unknown
2:56 AM 26.1 °F - 21.9 °F 84% 30.29 in - Calm Calm - N/A   Unknown
3:56 AM 27.0 °F - 21.9 °F 81% 30.27 in - Calm Calm - N/A   Unknown
4:56 AM 26.1 °F - 23.0 °F 88% 30.27 in - Calm Calm - N/A   Unknown
5:56 AM 27.0 °F 23.0 °F 23.0 °F 85% 30.29 in - Variable 3.5 mph - N/A   Unknown
6:56 AM 27.0 °F - 23.0 °F 85% 30.28 in - Calm Calm - N/A   Unknown
7:56 AM 26.1 °F - 23.0 °F 88% 30.29 in - Calm Calm - N/A   Unknown
8:56 AM 28.0 °F - 23.0 °F 81% 30.27 in - Calm Calm - N/A   Unknown
9:56 AM 28.0 °F - 23.0 °F 81% 30.28 in - Calm Calm - N/A   Unknown
10:56 AM 28.9 °F - 24.1 °F 82% 30.28 in - Calm Calm - N/A   Unknown
11:56 AM 30.9 °F 26.2 °F 21.9 °F 69% 30.25 in - Variable 4.6 mph - N/A   Unknown
12:56 PM 30.9 °F - 23.0 °F 72% 30.22 in - Calm Calm - N/A   Unknown
1:56 PM 30.9 °F 27.5 °F 21.9 °F 69% 30.19 in - Variable 3.5 mph 18.4 mph N/A   Unknown
2:56 PM 30.9 °F - 23.0 °F 72% 30.17 in - Calm Calm - N/A   Unknown
3:56 PM 30.9 °F - 23.0 °F 72% 30.17 in - Calm Calm - N/A   Unknown
4:56 PM 30.0 °F - 23.0 °F 75% 30.19 in - Calm Calm - N/A   Unknown
5:56 PM 30.0 °F - 23.0 °F 75% 30.16 in - Calm Calm - N/A   Unknown
6:56 PM 28.9 °F - 24.1 °F 82% 30.17 in - Calm Calm - N/A   Unknown
7:56 PM 28.9 °F - 23.0 °F 78% 30.15 in - Calm Calm - N/A   Unknown
8:56 PM 28.9 °F - 24.1 °F 82% 30.12 in - Calm Calm - N/A   Unknown
9:56 PM 28.9 °F 25.2 °F 23.0 °F 78% 30.11 in - Variable 3.5 mph - N/A   Unknown
10:56 PM 28.9 °F - 23.0 °F 78% 30.10 in - Calm Calm - N/A   Unknown
11:56 PM 28.0 °F - 23.0 °F 81% 30.09 in - Calm Calm - N/A   Unknown